{"data":{"norad_id":65852,"epoch":"2026-05-24T22:26:37.627008Z","epoch_age_seconds":90809,"freshness":"FRESH","line1":"1 65852U 25222B   26144.93515772  .00001621  00000+0  16059-3 0  9998","line2":"2 65852  34.9981  41.4695 0003723 279.6171  80.4113 14.91741262 35540","mean_motion":14.91741262,"eccentricity":0.0003723,"inclination_deg":34.9981,"raan_deg":41.4695,"arg_perigee_deg":279.6171,"mean_anomaly_deg":80.4113,"bstar":0.00016059,"rev_number":3554,"period_min":96.531485498321,"perigee_km":589.91080680233,"apogee_km":595.10114756313,"semimajor_km":6970.6429771827,"source":"CELESTRAK","updated_at":"2026-05-25T13:38:05.760679Z"}}